Content
SEND FEEDBACK

Daily
Averages
Monthly
Summary
United States of America

RAPID CITY, SOUTH DAKOTA


Home > North America > United States > South Dakota
Elevation: 3162 feet     Latitude: 44 03N     Longitude: 103 04W

WEATHER
 
SELECT A DAY
Number of Records: 204,993;   Date Range: 1/1/95 - 12/18/14
 
SHARE

PRINT THIS DATA

[ ← Previous Day ]
WEATHER ALMANAC - JANUARY 10, 2013
[ Next Day → ]
[ °C ]   °F
Weather ElementAverageHighLow
Temperature39 °F50 °F (2:52 pm)32 °F (11:52 pm)
Dewpoint20.8 °F27 °F (11:52 pm)17.1 °F (4:52 pm)
Humidity50 %82 % (11:52 pm)28 % (2:52 pm)
Barometer29.59 in29.81 in (1:52 am)29.47 in (2:52 pm)
Wind Speed14.2 mph26.5 mph (8:52 am)
Wind Gust34.5 mph (8:52 am)
Weather ElementAverage
Visibility10 mi
Wind DirectionSSW (188.2 °)

Weather ElementTotal
Precipitation---
Heating Degree Days24 (Base 65)
Averaged from 22 records on January 10, 2013
WEATHER CONDITIONS BREAKOUT
WIND DIRECTION BREAKOUT
WEATHER BY HOUR - JANUARY 10, 2013
[ °C ]   °F
Local TimeTemperatureDewpointHumidityBarometerVisibilityWind DirectionWind SpeedGust SpeedPrecipitationEventsConditions
1:52 AM35.1 °F23.0 °F61 %29.81 in10.0 miSouth (170°)16.1 mphClear
2:52 AM35.1 °F23.0 °F61 %29.80 in10.0 miSouth (180°)17.3 mphClear
3:52 AM36.0 °F21.9 °F57 %29.77 in10.0 miSouth (170°)18.4 mph24.2 mphClear
4:52 AM35.6 °F21.2 °F56 %29.71 in10.0 miSE (140°)10.4 mph21.9 mphClear
5:52 AM34.0 °F21.0 °F59 %29.74 in10.0 miSouth (170°)9.2 mphClear
6:52 AM33.8 °F21.2 °F60 %29.66 in10.0 miSE (140°)10.4 mphClear
7:52 AM37.0 °F21.0 °F52 %29.70 in10.0 miSouth (170°)16.1 mph24.2 mphClear
8:52 AM39.9 °F21.0 °F47 %29.67 in10.0 miSouth (190°)26.5 mph34.5 mphClear
9:52 AM42.1 °F21.0 °F43 %29.65 in10.0 miSouth (180°)18.4 mph25.3 mphClear
10:52 AM42.8 °F19.4 °F39 %29.58 in10.0 miSE (140°)18.4 mph31.1 mphClear
12:52 PM46.4 °F19.4 °F34 %29.49 in10.0 miSouth (190°)15.0 mphClear
1:52 PM46.9 °F19.9 °F34 %29.51 in10.0 miSSW (200°)18.4 mph28.8 mphClear
2:52 PM50.0 °F18.0 °F28 %29.47 in10.0 miSSW (200°)18.4 mph24.2 mphClear
3:52 PM48.0 °F18.0 °F30 %29.48 in10.0 miSSW (200°)16.1 mphClear
4:52 PM44.1 °F17.1 °F34 %29.49 in10.0 miSSW (200°)9.2 mphClear
5:52 PM39.0 °F18.0 °F43 %29.49 in10.0 miNE (40°)5.8 mphClear
6:52 PM37.9 °F19.0 °F47 %29.48 in10.0 miNE (40°)8.1 mphClear
7:52 PM36.0 °F19.0 °F50 %29.49 in10.0 miCalmClear
8:52 PM37.9 °F19.0 °F47 %29.47 in10.0 miNorth (350°)10.4 mphClear
9:52 PM35.1 °F24.1 °F64 %29.49 in10.0 miNorth (360°)9.2 mphClear
10:52 PM34.0 °F26.1 °F73 %29.49 in10.0 miNorth (350°)19.6 mph25.3 mphClear
11:52 PM32.0 °F27.0 °F82 %29.51 in10.0 miNorth (360°)20.7 mph28.8 mphClear
Hourly data recorded from KRAP, located miles away from Rapid City, South Dakota







STORIES FROM OUR PARTNERS